Other Public Products
Issued by NWS Grand Forks, ND

Home | Current Version | Previous Version | Graphics & Text | Print | Product List | Glossary On
Versions: 1 2 3 4 5 6 7 8 9 10 11 12 13 14 15 16 17 18 19 20 21 22 23 24 25 26 27 28 29 30 31 32 33 34 35 36 37 38 39 40 41 42 43 44 45 46 47 48 49 50
000
FPUS83 KFGF 231531
OPUFGF
PRAIRIE TO PINES WEATHER ROUNDUP
NATIONAL WEATHER SERVICE EASTERN NORTH DAKOTA/GRAND FORKS ND
900 AM CST SUN NOV 23 2014

 **SATELLITE DATA USED TO AUGMENT SKY COVER AT AUTOMATED STATIONS**
 *****  WEATHER ACROSS EASTERN NORTH DAKOTA  *****

CITY           SKY/WX    TMP DP  RH WIND       PRES   REMARKS
GRAND FORKS    CLOUDY    41  33  73 W12       29.38R
GRAND FORKS AF CLOUDY    40  35  80 W9        29.39R
GRAND CITY NWS   N/A     37 N/A N/A W6          N/A
BUXTON           N/A     40  35  81 W8          N/A
DEVILS LAKE    CLOUDY    37  25  60 W17       29.37R
FARGO          LGT RAIN  36  33  89 S6        29.43R
WAHPETON ARPT  CLOUDY    34  32  93 W3        29.45S
$$

 *****  WEATHER ACROSS CENTRAL AND WESTERN NORTH DAKOTA  *****

CITY           SKY/WX    TMP DP  RH WIND       PRES   REMARKS
JAMESTOWN      CLOUDY    39  32  76 W15       29.42S
BISMARCK       MOCLDY    34  23  64 W28G44    29.49R WCI  21
MINOT          LGT SNOW  23  17  78 W26G37    29.44R VSB 1   WCI   6
MINOT AFB      MIX PCPN  23  19  86 W26       29.42R FOG     WCI   6
GARRISON         N/A     25  18  74 W22G44    29.48R WCI  10
WILLISTON      LGT SNOW  19  12  74 NW24G33   29.64R WCI   2
DICKINSON      LGT SNOW  27  21  78 W28G41    29.55R WCI  11
HETTINGER      CLOUDY    34  25  69 W29G37    29.58R WCI  20
$$

 *****  OTHER OBSERVATIONS NORTHEAST NORTH DAKOTA  *****

CITY           SKY/WX    TMP DP  RH WIND       PRES   REMARKS
WALHALLA         N/A     27  27 100 NW13      29.39R WCI  16
LANGDON        CLOUDY    32  32 100 W5        29.35S
CAVALIER       PTSUNNY   32  28  86 NW12      29.38R WCI  23
GRAFTON        FAIR      37  32  81 W10       29.37S
CANDO          PTSUNNY   32  27  80 W17       29.39R WCI  21
FORT TOTTEN      N/A     37  31  79 W7        29.95
ROLLA          CLOUDY    27  27 100 N5        29.37R WCI  21
RUGBY          CLOUDY    28  19  69 W18G29    29.41R WCI  16
 ***** THE ABOVE OBSERVATIONS ARE NON NWS ARE NOT QUALITY
        CONTROLLED AND MAY MIS-REPORT RAIN FOR SNOW...
$$

 *****  OTHER OBSERVATIONS SOUTHEAST NORTH DAKOTA *****

CITY           SKY/WX    TMP DP  RH WIND       PRES   REMARKS
COOPERSTOWN    NOT AVBL
VALLEY CITY    PTSUNNY   37  37 100 W13       29.43R
OAKES            N/A     36  36 100 W9        29.47R
GWINNER        MOSUNNY   37  37 100 W12       29.47S
SHEYENNE NWR     N/A     38  36  93 W5        29.95S
BUFFALO        NOT AVBL
WYNDMERE         N/A     37  37 100 W8          N/A
 ***** THE ABOVE OBSERVATIONS ARE NON NWS ARE NOT QUALITY
       CONTROLLED AND MAY MIS-REPORT RAIN FOR SNOW...
$$

  *****  WEATHER ACROSS NORTHERN MINNESOTA  *****

CITY           SKY/WX    TMP DP  RH WIND       PRES   REMARKS
FLAG ISLAND    CLOUDY    34  30  86 SE7       29.37F FOG
WARROAD        CLOUDY    34  30  86 S3        29.37S FOG
ROSEAU         CLOUDY    36  30  80 S6        29.36S HAZE
HALLOCK        MOCLDY    34  30  86 CALM      29.36S
THF RVR FALLS  MOCLDY    34  32  93 S6        29.40R
HALSTAD          N/A     34  32  91 S9          N/A
FOSSTON        CLOUDY    32  30  93 S6        29.41R FOG
BAUDETTE       FOG       33  32  96 SE3       29.38S VSB 1
WASKISH        FOG       36  34  93 CALM      29.40R VSB 1
CROOKSTON      CLOUDY    34  32  93 S5        29.41R FOG
$$
  *****  WEATHER ACROSS CENTRAL AND WEST MINNESOTA  *****

CITY           SKY/WX    TMP DP  RH WIND       PRES   REMARKS
BEMIDJI        CLOUDY    33  33 100 SW3       29.40R FOG
PARK RAPIDS    CLOUDY    33  32  96 CALM      29.40F FOG
WADENA         CLOUDY    34  32  93 S3        29.42R FOG
DETROIT LAKES  PTSUNNY   34  34 100 SW5       29.43R FOG
MOORHEAD       LGT RAIN  36  36 100 S3        29.44R
FERGUS FALLS   PTSUNNY   34  32  93 CALM      29.47R
ELBOW LAKE       N/A     34  32  93 W3        29.45S
MORRIS MN      DRIZZLE   36  34  93 S5        29.47R
STAPLES        CLOUDY    34  34 100 CALM      29.43R FOG
WHEATON        CLOUDY    36  34  93 W7        29.48S
$$
  *****  WEATHER ELSEWHERE ACROSS MINNESOTA  *****

CITY           SKY/WX    TMP DP  RH WIND       PRES   REMARKS
DULUTH         FOG       37  36  96 S5        29.42R VSB 1/8
INTRNTL FALLS  CLOUDY    33  32  96 E3        29.40F FOG
ELY            FOG       36  34  93 CALM      29.42R VSB 3/4
CLOQUET        FOG       37  37 100 SW5       29.43R VSB 1
BRAINERD       CLOUDY    34  34 100 SE3       29.42F FOG
HIBBING        FOG       37  35  92 CALM      29.41R VSB 1/2
ALEXANDRIA     CLOUDY    36  32  85 W8        29.45R
SAINT CLOUD    CLOUDY    39  36  89 CALM      29.44F FOG
MINNEAPOLIS    CLOUDY    49  48  97 S3        29.46S FOG
$$

  *****  WEATHER ACROSS SOUTH DAKOTA  *****

CITY           SKY/WX    TMP DP  RH WIND       PRES   REMARKS
SIOUX FALLS    LGT RAIN  40  36  86 NW16      29.50R
BROOKINGS      NOT AVBL
WATERTOWN      CLOUDY    37  33  85 NW12      29.48S
HURON          CLOUDY    37  33  85 W15       29.55R
SISSETON         N/A     40  36  86 NW15      29.45S
ABERDEEN       MOSUNNY   38  32  79 W13       29.52R
MITCHELL       NOT AVBL
PIERRE         MOCLDY    37  31  78 W16       29.59R
MOBRIDGE       CLOUDY    39  31  72 NW14      29.50S
RAPID CITY     CLEAR     38  20  48 NW25G39   29.68R
$$

  *****  SOME WEATHER IN NEARBY STATES *****

CITY           SKY/WX    TMP DP  RH WIND       PRES   REMARKS
GLASGOW MT     CLOUDY    24  17  74 NW24G33   29.74R WCI   8
GREAT FALLS MT CLOUDY    29  22  75 SW10      29.88R WCI  20
CHEYENNE WY    CLEAR     28  14  55 N8        29.75R WCI  20
SCOTTSBLUFF NE CLEAR     30  21  69 W13       29.76R WCI  20
OMAHA NE       LGT RAIN  52  51  97 S5        29.49S
DES MOINES IA  CLOUDY    53  50  89 S7        29.51F
DAVENPORT IA   RAIN      50  48  93 S12       29.61F FOG
CHICAGO IL     CLOUDY    49  43  80 S14       29.73F
EAU CLAIRE WI  CLOUDY    48  46  93 S7        29.51R FOG
LA CROSSE WI   CLOUDY    51  48  89 S12       29.54S
$$

  *****  SOME NATIONAL WEATHER *****

CITY           SKY/WX    TMP DP  RH WIND       PRES   REMARKS
LA GUARDIA NY  PTSUNNY   47  23  38 SW8       30.21S
RALEIGH NC     CLOUDY    47  34  60 CALM      30.24F
ATLANTA GA     LGT RAIN  51  49  92 E12       30.00F FOG
NEW ORLEANS LA CLOUDY    63  60  90 S15       29.69F
OKLAHOMA CITY  CLOUDY    55  52  88 S18G24    29.43F
ALBUQUERQUE NM MOSUNNY   44  24  45 NW26G32   29.88R
SALT LAKE CITY FLURRIES  32  29  88 NE8       30.16R WCI  25
LOS ANGELES CA MOCLDY    60  51  72 CALM      30.10R
BOISE ID       CLOUDY    31  26  82 CALM      30.29R
SEATTLE WA     LGT RAIN  48  43  82 S16       30.09F
$$

*** WEATHER ACROSS MANITOBA...SASKATCHEWAN AND ONTARIO ***
                ***ONTARIO***

CITY           SKY/WX    TMP DP  RH WIND       PRES   REMARKS
GERALDTON      FRZ DRZL  27  27 100 E10       29.59S VSB 1   WCI  17
THUNDER BAY    DRZL/FOG  37  37 100 E7        29.48F VSB 1
SIOUX LOOKOUT  DRIZZLE   34  32  93 E3        29.43R FOG
TORONTO        PTSUNNY   45  41  87 SE6       29.99S
BIG TROUT LK   CLEAR      0  -4  85 NE8       29.79F WCI -15
PICKLE LAKE    LGT SNOW  16  12  86 E9        29.55S WCI   4
DRYDEN         CLOUDY    32  32 100 SE3       29.41  FOG
KENORA         FRZ DRZL  32  30  93 SE6       29.39S VSB 1/4
$$
                *** MANITOBA***

CITY           SKY/WX    TMP DP  RH WIND       PRES   REMARKS
BRANDON        CLOUDY    19  18  93 N16       29.45R WCI   5
DAUPHIN        LGT SNOW  12   9  85 N18G25    29.59R WCI  -5
ISLAND LAKE    LGT SNOW   3   0  85 NE7       29.75R WCI  -9
PILOT MOUND      N/A     25  23  93 N12         N/A  WCI  14
THE PAS        MOCLDY     0  -6  78 N6        29.85R WCI -12
THOMPSON       MOCLDY   -18 -26  69 VRB2      29.93R
WINNIPEG       CLOUDY    28  27  93 W8        29.36S FOG     WCI  20
LYNN LAKE      CLEAR    -26 -31  75 NW2       29.92R
CHURCHILL      CLEAR    -13 -18  77 NW13      29.94R WCI -34
GILLAM         PTCLDY   -22 -29  69 NW6       29.94R WCI -38
$$
                ***SASKATCHEWAN***

CITY           SKY/WX    TMP DP  RH WIND       PRES   REMARKS
ESTEVAN        LGT SNOW  16  10  79 NW26G39   29.54  DRFTSNOWWCI  -3
KINDERSLEY     LGT SNOW  16  12  86 W10       29.79R WCI   3
LLOYDMINSTER   FLURRIES  12   9  85 W7        29.76R WCI   2
PRINCE ALBERT  CLOUDY     3   0  85 N6        29.83R WCI  -8
REGINA         SNOWSHWR  10   9  92 NW21G26   29.69R DRFTSNOWWCI  -9


USA.gov is the U.S. government's official web portal to all federal, state and local government web resources and services.